Lake Hood, AK

6:07 PM AKDT on April 28, 2017 (GMT -0800)
Lake Hood

Weather History for PALH - August, 2013

Change the Weather History Date:

Wednesday, August 21, 2013

  Actual Average Record
Temperature  
Mean Temperature 56 °F -  
Max Temperature 57 °F 61 °F 73 °F (2001)
Min Temperature 54 °F 48 °F 46 °F (2006)
Degree Days  
Heating Degree Days 10    
Growing Degree Days 6 (Base 50)    
Moisture  
Dew Point 50 °F    
Average Humidity 84    
Maximum Humidity 93    
Minimum Humidity 69    
Precipitation  
Precipitation 0.34 in - - ()
Sea Level Pressure  
Sea Level Pressure 29.82 in    
Wind  
Wind Speed 7 mph (ENE)    
Max Wind Speed 10 mph    
Max Gust Speed 18 mph    
Visibility 8 miles    
Events Rain    
Averages and records for this station are not official NWS values.
T = Trace of Precipitation, MM = Missing Value Source: NWS Daily Summary

Daily Weather History Graph

Daily Weather History Graph

Search for Another Location

Airport or City:

Trip Planner

Search our weather history database for the weather conditions in past years. The results will help you decide how hot, cold, wet, or windy it might be!

Date:

Astronomy

Aug. 21, 2013 Rise Set
Actual Time 6:24 AM AKDT 9:39 PM AKDT
Civil Twilight 5:33 AM AKDT 10:29 PM AKDT
Nautical Twilight 4:20 AM AKDT 11:41 PM AKDT
Astronomical Twilight 2:35 AM AKDT 1:30 AM AKDT
Moon 9:11 PM AKDT (8/21) 7:48 AM AKDT (8/21)
Length of Visible Light 16h 55m
Length of Day
15h 14m
Full, 99% of the Moon is Illuminated
Aug 21
Full
Aug 28
Last Quarter
Sep 5
New
Sep 12
First Quarter
Sep 19
Full

Hourly Weather History & Observations

Time (AKDT) Temp. Dew Point Humidity Pressure Visibility Wind Dir Wind Speed Gust Speed Precip Events Conditions
12:53 AM 57.0 °F 46.9 °F 69% 29.86 in 10.0 mi SSW 10.4 mph 16.1 mph 0.00 in Rain Light Rain
1:53 AM 55.9 °F 46.9 °F 72% 29.87 in 10.0 mi SSW 8.1 mph 18.4 mph 0.00 in   Overcast
2:53 AM 55.0 °F 48.0 °F 77% 29.88 in 10.0 mi South 6.9 mph 16.1 mph 0.01 in Rain Light Rain
3:53 AM 54.0 °F 48.0 °F 80% 29.87 in 10.0 mi South 4.6 mph - 0.00 in Rain Light Rain
4:53 AM 54.0 °F 46.9 °F 77% 29.86 in 10.0 mi South 9.2 mph 17.3 mph 0.00 in   Overcast
5:53 AM 54.0 °F 48.0 °F 80% 29.85 in 10.0 mi SSE 8.1 mph - N/A   Overcast
6:53 AM 54.0 °F 48.0 °F 80% 29.85 in 10.0 mi South 9.2 mph - 0.01 in   Overcast
7:53 AM 54.0 °F 50.0 °F 86% 29.84 in 10.0 mi NNE 4.6 mph - 0.00 in   Overcast
8:53 AM 55.0 °F 48.9 °F 80% 29.84 in 10.0 mi Calm Calm - 0.00 in Rain Light Rain
9:53 AM 55.0 °F 48.9 °F 80% 29.83 in 9.0 mi SSE 5.8 mph - 0.01 in Rain Light Rain
10:53 AM 55.0 °F 50.0 °F 83% 29.83 in 7.0 mi Calm Calm - 0.01 in Rain Light Rain
11:53 AM 55.0 °F 51.1 °F 86% 29.83 in 6.0 mi NE 4.6 mph - 0.02 in Rain Light Rain
12:53 PM 55.0 °F 50.0 °F 83% 29.83 in 7.0 mi South 6.9 mph - 0.02 in Rain Light Rain
1:53 PM 55.9 °F 53.1 °F 90% 29.82 in 6.0 mi NNE 5.8 mph - 0.02 in Rain Light Rain
2:53 PM 55.9 °F 53.1 °F 90% 29.81 in 6.0 mi North 4.6 mph - 0.02 in Rain Light Rain
3:53 PM 55.0 °F 52.0 °F 89% 29.81 in 6.0 mi North 6.9 mph - 0.02 in Rain Light Rain
4:53 PM 55.0 °F 52.0 °F 89% 29.80 in 8.0 mi NE 6.9 mph - 0.02 in Rain Light Rain
5:53 PM 55.0 °F 51.1 °F 86% 29.79 in 7.0 mi NE 5.8 mph - 0.03 in Rain Light Rain
6:53 PM 55.0 °F 51.1 °F 86% 29.78 in 8.0 mi NE 5.8 mph - 0.02 in Rain Light Rain
7:53 PM 55.0 °F 51.1 °F 86% 29.78 in 9.0 mi NNE 3.5 mph - 0.01 in Rain Light Rain
8:53 PM 55.0 °F 52.0 °F 89% 29.78 in 10.0 mi Calm Calm - 0.03 in Rain Light Rain
9:53 PM 54.0 °F 51.1 °F 90% 29.78 in 7.0 mi NNE 4.6 mph - 0.02 in Rain Light Rain
10:53 PM 54.0 °F 52.0 °F 93% 29.78 in 7.0 mi NNE 3.5 mph - 0.04 in Rain Light Rain
11:53 PM 54.0 °F 51.1 °F 90% 29.78 in 8.0 mi NE 3.5 mph - 0.03 in Rain Light Rain